Tracking 26935 objects as of 4-Feb-2023
HD Live streaming from Space Station
objects crossing your sky now

GEOS 2

Track GEOS 2 now!
GEOS 2 is classified as:


NORAD ID: 10981
Int'l Code: 1978-071A
Perigee: 36,033.5 km
Apogee: 36,057.1 km
Inclination: 8.6 °
Period: 1,449.0 minutes
Semi major axis: 42416 km
RCS: 2.0304 m2 (large)
Launch date: July 14, 1978
Source: European Space Agency (ESA)
Launch site: AIR FORCE EASTERN TEST RANGE (AFETR)
Your satellite tracking list
Your tracking list is empty




NASA's NSSDC Master Catalog

Two Line Element Set (TLE):
1 10981U 78071A   23034.51842612 -.00000071  00000-0  00000-0 0  9992
2 10981   8.5993 299.1617 0002780 353.6794 211.5364  0.99381119161779
Source of the keplerian elements: AFSPC